Voltar ao catálogo

FREGAT DEB

LostUNKNOWN
NORAD 45828·DEBRIS·🇷🇺 Russia

Lançado Jul 18, 2011 de Baikonur Cosmodrome

Loading…

Próximas Passagens (próximas 24 horas)

TLE

ObsoletoSource: Space-Track

Época: Jul 14, 2020, 09:30 UTC

1 45828U 11037BN  20196.39617862 -.00107127  00000-0 -45031+0 0  9991
2 45828  51.3397 326.6549 2171290  70.9038 311.3232  9.81368529  4102

Acompanhe FREGAT DEB em tempo real com AllMySat

Download on the App Store